Content
SEND FEEDBACK

Daily
Averages
Monthly
Summary
United States of America

MIDWEST CITY, OKLAHOMA


Home > North America > United States > Oklahoma
Elevation: 393 meters     Latitude: 35 25N     Longitude: 097 23W

WEATHER
 
SELECT A DAY
Number of Records: 213,123;   Date Range: 1/1/95 - 10/20/14
 
SHARE

PRINT THIS DATA

[ ← Previous Day ]
WEATHER ALMANAC - 31 JANUARY, 2013
[ Next Day → ]
[ °F ]   °C
Weather ElementAverageHighLow
Temperature3.7 °C14.1 °C (1:55 pm)-4.4 °C (11:55 pm)
Dewpoint-5.9 °C-2.1 °C (4:55 pm)-9.6 °C (11:55 pm)
Humidity53.3 %71 % (6:55 am)26 % (2:55 pm)
Barometer1022.4 hPa1030.5 hPa (8:55 pm)1017.3 hPa (4:55 am)
Wind Speed18.8 km/h38.9 km/h (3:55 pm)
Wind Gust46.3 km/h (3:55 pm)
Weather ElementAverage
Visibility16.1 km
Wind DirectionSSE (142.2 °)

Weather ElementTotal
Precipitation---
Heating Degree Days13.5 (Base 18.3)
Averaged from 23 records on 31 January, 2013
WEATHER CONDITIONS BREAKOUT
WIND DIRECTION BREAKOUT
WEATHER BY HOUR - 31 JANUARY, 2013
[ °F ]   °C
Local TimeTemperatureDewpointHumidityBarometerVisibilityWind DirectionWind SpeedGust SpeedPrecipitationEventsConditions
1:55 AM-0.3 °C-6.3 °C64 %1017.9 hPa16.1 kmSW (220°)13 km/hClear
2:55 AM-0.2 °C-7.1 °C60 %1017.9 hPa16.1 kmSW (230°)5.6 km/hClear
3:55 AM1.5 °C-7.6 °C51 %1017.6 hPa16.1 kmWSW (250°)11.1 km/hClear
4:55 AM-0.1 °C-7.2 °C59 %1017.3 hPa16.1 kmSSW (210°)7.4 km/hClear
5:55 AM-1.5 °C-6.8 °C68 %1017.9 hPa16.1 kmSSE (160°)13 km/hClear
6:55 AM-2 °C-6.7 °C71 %1018.3 hPa16.1 kmSSE (160°)14.8 km/hClear
7:55 AM-1.5 °C-6.9 °C67 %1019 hPa16.1 kmSouth (170°)13 km/hClear
8:55 AM1.6 °C-5.4 °C60 %1019 hPa16.1 kmSSE (160°)11.1 km/hClear
9:55 AM6.5 °C-6.1 °C41 %1019.6 hPa16.1 kmSouth (190°)14.8 km/hClear
10:55 AM9.8 °C-5.8 °C33 %1019.3 hPa16.1 kmSouth (190°)22.2 km/h35.2 km/hClear
11:55 AM12.5 °C-4.8 °C30 %1019.6 hPa16.1 kmSW (220°)20.4 km/hClear
12:55 PM13.8 °C-5.1 °C27 %1019 hPa16.1 kmWest (270°)16.7 km/hClear
1:55 PM14.1 °C-4.5 °C28 %1019.3 hPa16.1 kmNW (320°)22.2 km/hClear
2:55 PM14.1 °C-5.2 °C26 %1019.6 hPa16.1 kmNorth (360°)24.1 km/hClear
3:55 PM12.1 °C-2.4 °C37 %1021.3 hPa16.1 kmNorth (10°)38.9 km/h46.3 km/hClear
4:55 PM9.3 °C-2.1 °C45 %1023.7 hPa16.1 kmNNE (20°)29.6 km/hClear
5:55 PM5.6 °C-2.6 °C56 %1025.7 hPa16.1 kmNorth (10°)27.8 km/h33.3 km/hClear
6:55 PM2.4 °C-3.3 °C66 %1028.1 hPa16.1 kmNNE (20°)20.4 km/hClear
7:55 PM-0.4 °C-5.5 °C69 %1029.8 hPa16.1 kmNNE (20°)29.6 km/hClear
8:55 PM-1.7 °C-6.5 °C70 %1030.5 hPa16.1 kmNorth (10°)24.1 km/hClear
9:55 PM-2.7 °C-8.2 °C66 %1030.5 hPa16.1 kmNNE (20°)20.4 km/hClear
10:55 PM-3.4 °C-9.4 °C64 %1030.1 hPa16.1 kmNNE (20°)20.4 km/hClear
11:55 PM-4.4 °C-9.6 °C68 %1030.1 hPa16.1 kmNNE (30°)13 km/hClear
Hourly data recorded from KTIK, located 0 kilometers away from Midwest City, Oklahoma







STORIES FROM OUR PARTNERS